Location: Ailingen
(47.6833°N, 9.5000°E)
Time: 06:57:38
(UTC+00:00)

CZ-4 R/B - Pass Details

Date: 18 November 2025
Orbit: 547 x 556 km, 97.6° (Epoch: 13 December)

Event Time Altitude Azimuth Distance (km) Brightness Sun altitude
Rises 16:58:54 0° 151° (SSE) 2,726 7.7 -12.9°
Reaches altitude 10° 17:01:04 10° 146° (SE) 1,834 6.8 -13.2°
Maximum altitude 17:04:53 48° 72° (ENE) 735 4.5 -13.8°
Drops below altitude 10° 17:08:43 10° 358° (N) 1,842 6.9 -14.5°
Sets 17:10:54 0° 352° (N) 2,739 7.8 -14.8°
